Hourly Weather Russkiy Kadam

Today, 16 April, Friday

Time Temperature Precipitation Wind Pressure Humidity
00:00 +5°C° 0 mm 6 mps 755 mmHg 88%
01:00 +4°C° 0 mm 6 mps 756 mmHg 87%
02:00 +4°C° 0 mm 6 mps 756 mmHg 86%
03:00 +3°C° 0 mm 6 mps 756 mmHg 90%
04:00 +3°C° 0 mm 6 mps 756 mmHg 89%
05:00 +3°C° 0 mm 6 mps 757 mmHg 88%
06:00 +3°C° 0 mm 6 mps 757 mmHg 88%
07:00 +3°C° 0 mm 6 mps 757 mmHg 84%
08:00 +4°C° 0 mm 6 mps 758 mmHg 80%
09:00 +5°C° 0 mm 7 mps 758 mmHg 76%
10:00 +6°C° 0 mm 7 mps 758 mmHg 71%
11:00 +8°C° 0 mm 7 mps 758 mmHg 67%
12:00 +9°C° 0 mm 7 mps 758 mmHg 62%
13:00 +9°C° 0 mm 6 mps 758 mmHg 60%
14:00 +9°C° 0 mm 6 mps 758 mmHg 57%
15:00 +10°C° 0 mm 6 mps 758 mmHg 55%
16:00 +9°C° 0 mm 6 mps 758 mmHg 56%
17:00 +8°C° 0 mm 5 mps 759 mmHg 57%
18:00 +7°C° 0 mm 5 mps 759 mmHg 58%
19:00 +6°C° 0 mm 5 mps 759 mmHg 62%
20:00 +5°C° 0 mm 4 mps 759 mmHg 66%
21:00 +4°C° 0 mm 4 mps 759 mmHg 70%
22:00 +3°C° 0 mm 4 mps 759 mmHg 72%
23:00 +1°C° 0 mm 4 mps 759 mmHg 74%

Tomorrow, 17 April, Saturday

Time Temperature Precipitation Wind Pressure Humidity
00:00 +2°C° 0 mm 3 mps 759 mmHg 76%
01:00 +1°C° 0 mm 3 mps 760 mmHg 76%
02:00 +1°C° 0 mm 3 mps 760 mmHg 77%
03:00 0°C° 0 mm 3 mps 760 mmHg 78%
04:00 0°C° 0 mm 3 mps 760 mmHg 76%
05:00 +1°C° 0 mm 3 mps 760 mmHg 75%
06:00 0°C° 0 mm 4 mps 760 mmHg 73%
07:00 +3°C° 0 mm 4 mps 760 mmHg 65%
08:00 +4°C° 0 mm 4 mps 760 mmHg 58%
09:00 +6°C° 0 mm 5 mps 760 mmHg 50%
10:00 +7°C° 0 mm 5 mps 760 mmHg 48%
11:00 +8°C° 0 mm 5 mps 760 mmHg 45%
12:00 +9°C° 0 mm 5 mps 760 mmHg 43%
13:00 +9°C° 0 mm 5 mps 760 mmHg 42%
14:00 +11°C° 0 mm 4 mps 759 mmHg 42%
15:00 +11°C° 0 mm 4 mps 759 mmHg 41%
16:00 +10°C° 0 mm 4 mps 759 mmHg 46%
17:00 +9°C° 0 mm 3 mps 759 mmHg 50%
18:00 +9°C° 0 mm 3 mps 759 mmHg 55%
19:00 +8°C° 0 mm 3 mps 759 mmHg 60%
20:00 +5°C° 0 mm 3 mps 759 mmHg 65%
21:00 +4°C° 0 mm 3 mps 759 mmHg 70%
22:00 +4°C° 0 mm 3 mps 759 mmHg 72%
23:00 +3°C° 0 mm 3 mps 759 mmHg 74%

Day after tomorrow, 18 April, Sunday

Time Temperature Precipitation Wind Pressure Humidity
00:00 +3°C° 0 mm 3 mps 758 mmHg 76%
01:00 +2°C° 0 mm 3 mps 759 mmHg 78%
02:00 +3°C° 0 mm 2 mps 759 mmHg 79%
03:00 +3°C° 0 mm 2 mps 759 mmHg 81%
04:00 +3°C° 0 mm 2 mps 759 mmHg 81%
05:00 +3°C° 0 mm 2 mps 759 mmHg 81%
06:00 +3°C° 0 mm 2 mps 759 mmHg 81%
07:00 +4°C° 0 mm 3 mps 759 mmHg 73%
08:00 +7°C° 0 mm 3 mps 759 mmHg 66%
09:00 +7°C° 0 mm 4 mps 759 mmHg 59%
10:00 +8°C° 0 mm 4 mps 758 mmHg 56%
11:00 +10°C° 0 mm 4 mps 758 mmHg 52%
12:00 +10°C° 0 mm 5 mps 758 mmHg 49%
13:00 +10°C° 0 mm 5 mps 758 mmHg 50%
14:00 +10°C° 0 mm 6 mps 758 mmHg 51%
15:00 +10°C° 0 mm 6 mps 758 mmHg 52%
16:00 +8°C° 0 mm 6 mps 759 mmHg 56%
17:00 +7°C° 0 mm 6 mps 759 mmHg 61%
18:00 +5°C° 0 mm 6 mps 759 mmHg 66%
19:00 +4°C° 0 mm 6 mps 760 mmHg 66%
20:00 +3°C° 0 mm 6 mps 760 mmHg 67%
21:00 +2°C° 0 mm 5 mps 760 mmHg 67%
22:00 +2°C° 0 mm 5 mps 760 mmHg 66%
23:00 +2°C° 0 mm 5 mps 760 mmHg 64%

19 April, Monday

Time Temperature Precipitation Wind Pressure Humidity
00:00 +1°C° 0 mm 5 mps 761 mmHg 63%
01:00 +1°C° 0 mm 5 mps 761 mmHg 64%
02:00 0°C° 0 mm 5 mps 761 mmHg 64%
03:00 0°C° 0 mm 5 mps 761 mmHg 65%
04:00 -2°C° 0 mm 6 mps 762 mmHg 64%
05:00 -2°C° 0 mm 6 mps 762 mmHg 63%
06:00 -2°C° 0 mm 6 mps 762 mmHg 62%
07:00 -1°C° 0 mm 6 mps 762 mmHg 56%
08:00 0°C° 0 mm 7 mps 763 mmHg 50%
09:00 0°C° 0 mm 7 mps 763 mmHg 43%
10:00 +2°C° 0 mm 7 mps 763 mmHg 39%
11:00 +3°C° 0 mm 7 mps 763 mmHg 35%
12:00 +4°C° 0 mm 7 mps 763 mmHg 32%
13:00 +4°C° 0 mm 7 mps 763 mmHg 31%
14:00 +5°C° 0 mm 7 mps 763 mmHg 30%
15:00 +5°C° 0 mm 7 mps 762 mmHg 29%
16:00 +5°C° 0 mm 6 mps 762 mmHg 31%
17:00 +4°C° 0 mm 6 mps 762 mmHg 34%
18:00 +5°C° 0 mm 5 mps 762 mmHg 37%
19:00 +2°C° 0 mm 5 mps 763 mmHg 41%
20:00 +1°C° 0 mm 4 mps 763 mmHg 46%
21:00 0°C° 0 mm 4 mps 763 mmHg 50%
22:00 -1°C° 0 mm 4 mps 763 mmHg 51%
23:00 -1°C° 0 mm 5 mps 763 mmHg 53%

20 April, Tuesday

Time Temperature Precipitation Wind Pressure Humidity
00:00 -2°C° 0 mm 5 mps 763 mmHg 54%
01:00 -2°C° 0 mm 5 mps 763 mmHg 54%
02:00 -2°C° 0 mm 5 mps 763 mmHg 54%
03:00 -2°C° 0 mm 5 mps 763 mmHg 54%
04:00 -2°C° 0 mm 5 mps 763 mmHg 54%
05:00 -2°C° 0 mm 5 mps 763 mmHg 54%
06:00 -1°C° 0 mm 5 mps 763 mmHg 54%
07:00 0°C° 0 mm 5 mps 763 mmHg 48%
08:00 +2°C° 0 mm 6 mps 763 mmHg 42%
09:00 +4°C° 0 mm 7 mps 762 mmHg 37%
10:00 +5°C° 0 mm 7 mps 762 mmHg 34%
11:00 +6°C° 0 mm 7 mps 762 mmHg 32%
12:00 +8°C° 0 mm 7 mps 762 mmHg 30%
13:00 +8°C° 0 mm 7 mps 761 mmHg 31%
14:00 +8°C° 0 mm 7 mps 761 mmHg 32%
15:00 +9°C° 0 mm 7 mps 761 mmHg 33%
16:00 +8°C° 0 mm 6 mps 760 mmHg 35%
17:00 +7°C° 0 mm 6 mps 760 mmHg 38%
18:00 +7°C° 0 mm 6 mps 760 mmHg 40%
19:00 +5°C° 0 mm 6 mps 760 mmHg 42%
20:00 +4°C° 0 mm 6 mps 760 mmHg 44%
21:00 +3°C° 0 mm 6 mps 759 mmHg 46%
22:00 +3°C° 0 mm 6 mps 759 mmHg 47%
23:00 +2°C° 0 mm 6 mps 759 mmHg 48%

21 April, Wednesday

Time Temperature Precipitation Wind Pressure Humidity
00:00 +2°C° 0 mm 6 mps 759 mmHg 49%
01:00 +2°C° 0 mm 6 mps 759 mmHg 50%
02:00 +1°C° 0 mm 6 mps 759 mmHg 52%
03:00 +1°C° 0 mm 6 mps 758 mmHg 54%
04:00 +1°C° 0 mm 6 mps 758 mmHg 54%
05:00 +1°C° 0 mm 6 mps 758 mmHg 54%
06:00 0°C° 0 mm 7 mps 758 mmHg 55%
07:00 +2°C° 0 mm 7 mps 757 mmHg 50%
08:00 +4°C° 0 mm 8 mps 757 mmHg 46%
09:00 +5°C° 0 mm 8 mps 757 mmHg 42%
10:00 +6°C° 0 mm 9 mps 757 mmHg 39%
11:00 +8°C° 0 mm 9 mps 756 mmHg 35%
12:00 +10°C° 0 mm 9 mps 756 mmHg 32%
13:00 +10°C° 0 mm 9 mps 756 mmHg 33%
14:00 +11°C° 0 mm 8 mps 756 mmHg 33%
15:00 +11°C° 0 mm 8 mps 755 mmHg 33%
16:00 +11°C° 0 mm 8 mps 755 mmHg 36%
17:00 +10°C° 0 mm 7 mps 755 mmHg 38%
18:00 +9°C° 0 mm 7 mps 755 mmHg 41%
19:00 +8°C° 0 mm 7 mps 755 mmHg 54%
20:00 +6°C° 0 mm 7 mps 756 mmHg 67%
21:00 +4°C° 0 mm 8 mps 756 mmHg 80%
22:00 +4°C° 0.1 mm 7 mps 756 mmHg 83%
23:00 +4°C° 0.1 mm 7 mps 756 mmHg 87%
Show more